Dewpoint
64 68 72 71 70 70 70 71 71 70 69 68 68 68 68 68 68 67 67 66 66 65 65 65 67 67 65 65 65 66 67 68 68 68 68 68 65 62 62 63 63 61 66
63 67 71 71 70 70 70 71 71 70 70 69 69 68 68 69 68 67 67 67 67 66 67 67 67 66 66 65 64 65 67 67 67 67 66 67 67 67 67 66 65 67 67
62 65 69 71 71 70 70 70 71 71 70 70 69 69 68 68 67 66 66 66 66 66 67 67 67 67 66 65 64 66 66 66 66 65 65 64 65 66 66 67 67 67 66
61 66 65 71 71 70 71 70 70 71 70 70 69 69 69 68 67 67 66 65 64 63 66 66 65 64 64 63 63 65 65 65 65 64 63 60 62 65 65 65 65 65 64
61 66 65 71 71 69 70 70 70 70 70 69 69 69 69 69 68 67 66 66 65 64 65 65 63 62 62 63 61 62 64 64 61 57 53 56 58 61 63 64 64 62 62
61 63 69 71 71 70 70 70 70 70 69 69 69 69 69 68 68 67 67 65 65 64 63 64 62 63 64 64 63 62 64 64 60 51 53 57 58 61 60 60 60 61 61
61 62 67 70 70 70 70 69 69 69 70 69 69 69 69 68 67 67 66 63 63 63 63 63 61 62 65 65 65 64 64 63 63 61 60 59 61 64 62 61 60 61 64
60 62 64 69 69 69 69 69 68 68 70 69 68 69 68 68 67 66 65 64 63 62 62 63 61 64 65 65 64 64 63 62 61 61 60 59 63 64 65 62 62 64 63
60 62 63 65 67 69 68 68 69 69 69 69 68 67 67 67 67 65 65 64 62 62 61 63 62 63 64 63 63 61 60 60 59 61 58 58 62 63 65 65 65 64 63
59 62 61 63 64 65 66 68 68 68 69 69 68 67 67 67 66 65 65 63 61 61 61 61 62 64 64 64 62 60 57 56 60 59 59 60 61 63 64 64 64 64 62
57 60 60 60 61 63 63 65 67 67 68 68 67 66 66 65 64 64 61 62 62 60 60 61 62 64 64 60 60 57 53 52 57 58 57 60 59 60 61 62 61 61 61
44 48 54 59 59 59 63 66 65 65 65 64 64 64 63 63 62 61 60 60 60 59 60 61 63 63 59 57 58 55 51 50 55 56 57 58 59 60 60 59 59 59 59
41 42 45 48 55 59 58 61 64 65 65 64 63 64 63 61 60 58 57 57 57 58 56 59 61 60 54 55 54 51 49 49 50 53 57 58 56 59 57 58 58 57 58
43 42 42 43 44 48 53 56 59 64 64 65 64 64 63 62 59 57 55 55 54 54 53 58 59 56 56 53 52 51 51 49 49 52 57 59 59 58 57 57 55 55 57
45 46 46 45 45 43 46 48 52 56 63 64 65 64 63 62 59 57 55 53 53 54 52 57 56 56 57 54 53 51 50 50 49 52 56 58 59 58 56 57 57 57 56
38 44 46 46 45 46 44 46 45 50 55 63 64 65 63 62 61 59 56 54 53 52 52 57 55 56 54 53 52 52 51 50 50 50 55 57 58 58 56 58 58 58 55
38 41 43 46 47 45 47 47 46 50 62 60 63 64 63 62 61 60 58 55 53 52 52 58 54 55 53 52 51 51 51 51 51 52 55 57 57 57 59 58 57 57 56
40 39 41 43 46 48 47 49 50 51 57 63 63 63 63 62 62 61 60 56 53 54 54 57 54 53 53 53 51 51 50 51 50 52 56 56 57 57 57 58 57 55 55
44 45 44 44 45 48 48 49 53 53 54 59 64 64 62 62 62 61 60 59 57 54 55 56 55 54 53 52 52 52 51 51 50 53 54 56 57 57 58 58 59 58 60
51 50 47 45 46 47 50 51 56 56 57 56 60 64 63 62 62 61 61 60 58 57 57 55 54 54 52 53 52 52 52 52 51 52 54 55 55 55 58 57 56 56 54
51 51 50 47 46 48 51 52 56 57 57 59 61 60 61 63 62 62 61 60 58 58 58 57 54 53 54 54 53 52 52 51 51 51 54 53 52 52 52 54 53 52 52
47 49 50 51 48 49 52 55 55 54 56 57 61 62 61 62 62 62 61 60 58 58 58 57 56 54 53 54 51 49 47 47 49 52 52 52 50 49 50 50 51 50 49
46 48 50 50 51 53 54 55 55 57 58 57 59 60 60 60 61 61 61 60 59 58 57 56 55 54 53 53 51 49 46 46 46 48 51 52 50 48 48 49 49 48 47
39 43 48 52 52 52 53 53 54 55 53 55 55 57 57 59 60 60 60 60 59 58 57 56 55 54 53 52 53 52 48 46 46 44 46 50 51 48 47 46 47 46 45
35 38 41 43 45 52 52 52 52 51 52 53 55 55 56 57 58 59 60 59 58 58 57 56 55 54 53 52 52 51 49 47 46 45 44 46 49 49 47 46 45 43 42
29 33 36 38 40 43 48 51 53 52 52 52 53 53 55 55 56 57 58 59 59 58 57 56 55 55 54 52 52 51 49 46 45 45 44 46 46 48 48 46 43 40 36
Wind_Speed
11 18 20 19 18 17 15 17 19 19 19 18 17 16 16 17 18 16 15 14 12 11 11 12 11 13 15 13 14 13 15 15 12 14 13 12 15 13 11 7 8 15 15
14 20 20 19 18 18 16 16 18 19 18 18 18 17 16 16 17 15 14 13 10 12 9 8 11 15 15 14 13 13 14 15 15 17 19 18 15 14 9 9 17 17 18
13 21 20 19 18 18 16 15 16 18 18 18 18 17 16 16 15 15 14 13 12 14 14 16 14 15 14 14 11 11 13 14 13 14 15 14 15 15 17 18 18 18 17
10 21 19 20 19 18 17 16 16 17 17 16 16 17 18 17 17 16 15 14 12 11 14 15 14 12 11 11 11 11 11 11 9 9 10 12 12 11 12 15 15 16 16
11 19 15 21 19 19 18 17 16 16 15 16 16 16 17 17 16 17 16 13 11 9 10 12 13 12 11 12 12 11 11 9 8 8 8 9 10 9 10 12 12 12 14
11 14 21 22 19 18 17 16 16 15 14 14 15 16 15 15 16 17 16 12 10 8 8 12 13 12 10 11 13 13 11 9 8 7 11 9 13 9 9 9 12 13 14
11 11 17 18 18 19 18 17 17 16 16 15 14 14 13 13 17 19 18 16 10 8 9 11 12 11 9 15 15 15 11 5 8 11 10 11 12 11 8 11 13 15 16
11 10 13 14 16 17 18 17 17 16 16 16 14 13 14 16 17 17 18 18 14 12 9 11 12 11 13 17 18 17 13 9 11 7 9 13 11 11 8 13 14 16 18
10 10 11 15 15 15 17 17 17 16 15 15 15 15 15 15 17 16 16 17 14 12 10 9 11 11 14 16 16 16 11 7 6 12 14 10 12 12 13 13 17 18 18
10 10 12 13 16 17 17 18 18 19 16 16 16 16 15 17 16 15 14 14 15 11 11 8 10 9 12 16 13 14 9 3 9 11 13 9 15 13 13 17 18 20 21
10 12 12 14 16 15 14 19 18 18 19 18 17 17 18 17 16 17 14 17 13 10 11 10 11 10 16 16 14 12 8 9 12 10 10 10 14 12 13 14 15 16 17
15 13 12 13 14 14 15 12 18 19 17 18 20 19 18 16 17 16 15 15 12 13 11 9 10 14 17 11 9 10 8 13 14 9 11 8 10 12 10 12 13 13 14
17 15 15 13 12 13 15 15 12 13 15 16 20 19 20 16 12 12 12 12 13 12 12 12 10 15 14 13 13 10 10 11 8 11 14 9 12 8 9 12 10 10 10
18 18 15 14 13 12 12 15 17 15 15 15 17 18 18 13 14 13 13 15 14 14 17 15 13 12 9 12 11 9 6 8 6 8 11 12 13 11 10 9 9 9 11
19 19 18 15 13 14 14 15 16 18 17 17 17 20 18 15 15 14 15 15 15 16 17 16 15 13 11 13 11 13 8 5 7 11 10 10 9 12 12 10 13 12 14
19 19 17 18 17 16 17 19 18 17 14 18 15 17 18 16 14 12 12 15 15 15 15 14 13 15 12 11 11 13 11 8 8 8 13 9 10 13 11 13 13 13 13
19 18 18 17 16 18 17 18 18 14 13 12 16 19 19 17 15 14 13 12 13 15 15 17 13 15 12 12 13 16 15 15 7 14 10 9 6 10 13 11 13 13 12
15 15 15 15 15 18 18 16 15 14 17 12 13 17 21 20 18 15 12 12 12 13 14 16 14 14 13 9 14 10 9 7 8 13 12 8 8 8 9 13 13 13 15
11 12 15 15 18 18 18 15 15 14 14 15 12 11 18 20 19 16 13 10 7 11 14 15 15 15 15 13 11 7 5 5 8 11 9 6 6 2 6 9 9 9 11
6 8 11 13 16 16 15 15 13 12 11 11 14 12 12 14 17 18 15 13 10 8 11 13 17 14 14 15 10 10 8 7 6 10 9 6 7 7 10 12 14 10 12
8 5 6 10 13 15 15 17 16 15 13 11 10 13 15 12 12 14 14 16 14 11 15 13 12 18 15 14 13 7 7 2 4 5 11 7 7 7 8 11 11 10 10
9 12 6 4 7 13 13 13 12 14 13 13 10 11 11 13 13 12 13 15 16 15 11 15 16 10 13 17 12 10 4 2 4 3 7 10 8 6 8 8 10 10 12
13 12 11 3 0 1 5 8 6 10 8 6 7 6 10 12 11 12 13 13 17 18 19 16 19 18 16 17 19 9 5 7 5 2 3 6 11 8 6 8 9 8 10
16 15 16 10 5 4 3 5 10 10 11 10 10 10 7 6 8 11 12 14 17 16 17 19 20 22 18 21 8 14 9 11 7 5 4 6 8 11 11 6 8 9 10
18 19 17 18 21 7 7 6 3 4 4 6 6 7 6 5 5 7 10 13 15 15 16 21 18 19 20 22 19 16 9 10 12 6 6 7 8 10 12 12 11 11 10
20 20 20 20 20 21 19 10 4 6 6 6 6 6 7 7 7 10 10 11 12 15 16 21 22 23 22 20 21 19 18 16 19 17 12 17 19 13 10 12 12 11 11
Wind_Direction
150 139 150 150 151 143 142 144 149 151 149 151 151 150 149 147 147 141 139 140 140 145 149 153 145 143 136 127 113 108 99 92 96 90 84 102 109 110 115 117 125 105 101
154 149 151 152 156 147 147 145 154 155 155 158 157 156 156 153 150 149 145 142 142 147 115 147 146 137 130 127 119 113 108 102 101 100 96 91 93 100 97 82 88 104 98
159 144 162 156 158 153 151 146 148 158 163 164 165 159 161 158 157 156 154 145 133 124 116 108 114 121 124 121 124 118 119 119 124 132 114 96 89 90 89 88 94 99 98
158 141 167 162 159 159 156 158 157 161 168 171 172 165 168 168 169 163 159 151 143 132 126 124 122 120 123 132 136 130 130 129 145 175 161 119 101 91 91 92 93 94 96
154 141 159 159 165 167 164 168 170 170 168 168 171 172 175 175 172 163 159 142 136 134 131 129 131 135 139 139 140 137 135 141 177 223 103 109 117 102 101 102 104 106 100
157 154 151 161 173 172 173 171 173 178 179 176 174 178 181 182 168 155 149 136 134 143 145 138 142 135 142 155 141 134 137 165 205 185 115 75 81 111 107 113 107 111 114
166 164 151 165 174 177 174 177 179 181 183 184 182 180 181 167 162 149 144 132 144 148 151 146 144 130 134 136 132 129 132 142 199 106 101 116 97 106 114 127 127 127 117
161 166 151 162 177 184 184 183 184 189 184 183 187 181 179 162 158 157 148 142 153 160 155 155 139 134 139 123 117 118 121 117 110 139 97 97 106 86 101 123 131 120 117
167 175 168 174 183 186 189 192 190 192 190 185 186 186 178 169 158 158 154 147 156 158 152 146 141 151 146 133 128 121 117 128 129 102 103 108 113 80 85 100 115 116 108
186 191 187 178 185 192 196 197 197 196 197 191 186 181 176 162 154 158 155 158 155 157 152 160 157 165 170 141 131 130 133 193 102 97 101 92 102 90 91 93 99 102 99
203 206 210 204 190 194 199 187 196 201 197 196 189 180 167 172 171 161 180 150 149 161 157 169 165 154 143 135 136 133 154 186 121 116 111 108 114 99 93 97 98 98 99
205 208 211 214 216 209 181 170 196 199 204 201 197 181 186 184 182 185 147 153 166 164 172 178 177 151 155 142 142 144 206 208 133 135 109 131 127 109 108 106 100 101 102
224 212 207 206 211 222 218 194 198 207 204 206 200 194 198 181 172 163 153 170 179 172 182 185 182 172 196 155 172 177 196 176 159 144 127 142 122 140 134 117 115 109 116
238 225 215 209 206 218 231 220 204 198 204 207 206 196 200 186 168 179 174 179 183 176 176 182 180 182 181 166 161 175 207 143 162 103 125 127 133 143 140 131 136 135 122
231 235 227 224 229 233 225 239 227 203 193 204 205 199 196 187 175 184 180 182 184 176 181 180 198 153 173 177 166 173 187 176 170 140 133 141 143 144 145 150 151 143 134
230 228 235 237 230 227 228 226 234 222 221 187 195 196 195 185 181 186 188 185 185 182 187 174 196 162 174 179 170 181 179 204 255 124 132 148 163 160 166 161 150 144 140
229 229 231 233 228 219 217 222 226 213 226 239 186 195 187 187 189 182 195 189 186 189 192 160 191 164 172 172 177 186 204 171 249 121 128 146 165 172 157 168 158 149 152
233 233 221 226 216 222 211 211 218 217 200 222 216 191 190 187 191 179 194 194 195 180 187 156 175 176 169 195 164 226 176 160 175 129 129 139 163 165 192 164 171 172 178
252 249 237 224 225 209 215 204 207 211 212 196 204 202 197 192 187 187 182 195 223 180 187 165 172 182 167 188 166 174 162 163 207 105 129 139 119 136 162 148 114 130 152
279 276 253 227 218 209 199 198 190 199 208 203 186 192 197 194 192 190 188 184 190 190 186 182 172 187 174 171 170 161 165 183 177 147 148 131 112 106 115 121 118 134 131
9 330 289 233 210 199 188 188 185 193 198 193 194 199 197 186 184 193 189 185 167 177 179 189 193 178 179 153 129 91 75 80 180 171 141 130 123 125 118 137 135 134 123
26 5 348 315 217 195 187 184 182 195 190 193 184 183 184 189 179 183 181 183 176 170 187 175 170 177 178 153 151 141 137 9 331 315 176 154 150 138 145 143 154 164 146
27 12 354 32 160 35 156 164 184 143 113 166 165 177 194 194 172 185 187 189 183 182 177 172 165 166 171 171 160 165 151 196 150 258 247 196 164 166 166 178 175 160 149
17 15 14 21 125 112 96 155 179 169 171 184 183 190 185 184 162 187 185 180 183 185 184 176 181 175 171 173 190 230 199 159 179 174 235 243 197 178 173 211 176 178 172
24 25 25 31 33 25 146 147 143 130 128 136 151 168 181 174 167 186 203 190 184 184 184 179 183 190 189 185 189 189 200 165 186 168 175 192 228 207 187 186 190 181 189
35 27 28 32 30 28 37 45 120 163 157 155 163 173 177 172 179 192 196 187 185 190 193 191 190 194 194 196 199 200 199 184 187 185 211 184 198 199 191 190 191 187 174